STARLINK-3855, 52474

Orbit data source: Space-Track

STARLINK-3855, 52474 is a payload satellite owned by SpaceX/Seattle (US) in LEO that was launched on Fri, 06 May 2022 UTC via an FALCON 9 launch vehicle from the Air Force Eastern Test Range (AFETR). Payload-class satellites include a variety of spacecraft equipped with specific instruments for various scientific and technological missions. These include communications satellites like Starlink; space stations such as the ISS; scientific satellites like the Hubble; Earth observation satellites from companies like Planet Labs, Umbra, and HawkEye 360; GPS; miniature CubeSats for education and research; and military/defense satellites.

Loading next visibility...
Identifier
52474, 2022-049Z
Orbit
LEO
Country
Flag of USUS
Related business
Manufacturer
SpaceX/Seattle
Mission
Operational Commercial Communications
Bus & Motor
STARLINK, Unknown motor
Mass
297 kg wet, ~220 kg dry
Launch date (UTC)
2022-05-06 (4 years ago)
Launch vehicle
FALCON 9
Launch site
Air Force Eastern Test Range (AFETR)
Object type
Payload
Rocket body
Debris
Shape & HBR
Box + 1 Pan, 10.1 m
Radar Cross Section
13.562 m², Large (>1 m²)

Expand to show TLE details & history
Last TLE update: 19 hours ago

TLE from 19 hours ago
0 STARLINK-3855
1 52474U 22049Z   25349.73335897  .00006092  00000-0  40044-3 0  9999
2 52474  53.2164  66.0254 0001145  79.2009 280.9112 15.08844746199713
Epoch: 2025-12-15T17:36Z
TLE epoch observation values (Epoch: 2025-12-15T17:36:02.215Z)
Latitude
Longitude
77.38849°
Altitude
540.476 km
Speed
7.593 km/s
True Right ascension
04h 24m 06s
True Declination
0° 00' 00"
Sunlit
Object was in full shadow at epoch
Visualization orbit readout
Latitude
Unknown
Longitude
Unknown
Altitude
Unknown
Speed
Unknown
Apparent Right ascension
Unknown
Apparent Declination
Unknown
Sunlit
N/A
Visualization observer readout
Local Sidereal Time
10:48:58
Azimuth
Unknown
Elevation
Unknown
Doppler factor
Unknown
Orbital elements
Apogee altitude
540.766 km
Perigee altitude
539.182 km
Semi-major axis
6,918.111 km
Eccentricity
0.00011
Inclination
53.2164°
RAAN
66.0254°
Arg. of periapsis
79.2009°
True anomaly
280.89832°
Mean anomaly
280.9112°
Eccentric anomaly
280.90476°
Mean motion
3.77191 °/min
Orbital period
95.44 mins
BSTAR
0.00040044
Loading maneuver chart data...
Computing Atmospheric mass density...
Loading historical data...
Loading historical data...
Loading historical data...
Loading historical data...
Loading historical data...
Loading historical data...
Loading historical data...

Documentation

Showing up to 5 results
|